GLO1437 SBGO-SBSP

Flight info

Callsign GLO1437
Flight time 1h 10m
Altitude 36000
Route ESBOD DCT ISISA DCT UTLOT
Aircraft B738/M-SDFGIKLORWXY/LB1

Departure

Time 2026-05-08 21:25
Airport Santa Genoveva International Airport (SBGO)

Arrival

Time 2026-05-08 22:35
Airport Congonhas–Deputado Freitas Nobre Airport (SBSP)
Time Latitude Longitude Altitude Speed Heading
2026-05-08 21:14 -16.63039 -49.21482 2461 ft 0 kts 49°
2026-05-08 21:18 -16.63047 -49.21492 2463 ft 4 kts 49°
2026-05-08 21:19 -16.63063 -49.21511 2461 ft 4 kts 51°
2026-05-08 21:19 -16.63076 -49.21534 2465 ft 4 kts 83°
2026-05-08 21:19 -16.63071 -49.21557 2463 ft 4 kts 139°
2026-05-08 21:19 -16.63048 -49.21571 2461 ft 4 kts 158°
2026-05-08 21:20 -16.63028 -49.21581 2465 ft 0 kts 148°
2026-05-08 21:21 -16.63043 -49.21571 2461 ft 7 kts 146°
2026-05-08 21:22 -16.63102 -49.21518 2464 ft 16 kts 134°
2026-05-08 21:22 -16.63176 -49.21405 2461 ft 20 kts 120°
2026-05-08 21:22 -16.63246 -49.21280 2464 ft 20 kts 120°
2026-05-08 21:22 -16.63314 -49.21158 2464 ft 19 kts 120°
2026-05-08 21:23 -16.63384 -49.21043 2464 ft 19 kts 140°
2026-05-08 21:23 -16.63504 -49.21004 2465 ft 18 kts 165°
2026-05-08 21:23 -16.63619 -49.21026 2461 ft 17 kts 210°
2026-05-08 21:23 -16.63725 -49.21093 2463 ft 18 kts 223°
2026-05-08 21:24 -16.63699 -49.21213 2462 ft 22 kts 300°
2026-05-08 21:24 -16.63509 -49.21551 2464 ft 88 kts 300°
2026-05-08 21:24 -16.63093 -49.22294 2453 ft 145 kts 300°
2026-05-08 21:24 -16.62500 -49.23327 2614 ft 177 kts 302°
2026-05-08 21:25 -16.61885 -49.24422 3405 ft 175 kts 302°
2026-05-08 21:25 -16.61242 -49.25569 3770 ft 197 kts 302°
2026-05-08 21:25 -16.60509 -49.26875 3993 ft 219 kts 301°
2026-05-08 21:25 -16.59694 -49.28328 4159 ft 245 kts 301°
2026-05-08 21:26 -16.58789 -49.29938 4410 ft 266 kts 301°
2026-05-08 21:26 -16.57841 -49.31624 5002 ft 272 kts 301°
2026-05-08 21:26 -16.56884 -49.33325 5706 ft 274 kts 301°
2026-05-08 21:26 -16.56225 -49.35192 6382 ft 279 kts 276°
2026-05-08 21:27 -16.56494 -49.37200 7090 ft 284 kts 249°
2026-05-08 21:27 -16.57596 -49.38900 7811 ft 287 kts 223°
2026-05-08 21:27 -16.59324 -49.39951 8532 ft 292 kts 197°
2026-05-08 21:27 -16.61347 -49.40116 9280 ft 296 kts 172°
2026-05-08 21:28 -16.63304 -49.39507 10044 ft 299 kts 158°
2026-05-08 21:28 -16.65253 -49.38633 10499 ft 314 kts 156°
2026-05-08 21:28 -16.67324 -49.37646 10661 ft 338 kts 155°
2026-05-08 21:28 -16.69520 -49.36589 10824 ft 359 kts 155°
2026-05-08 21:29 -16.71853 -49.35473 10985 ft 378 kts 155°
2026-05-08 21:29 -16.74277 -49.34323 11397 ft 386 kts 156°
2026-05-08 21:29 -16.76745 -49.33162 11974 ft 389 kts 156°
2026-05-08 21:29 -16.79216 -49.32006 12604 ft 392 kts 156°
2026-05-08 21:30 -16.81719 -49.30839 13203 ft 395 kts 156°
2026-05-08 21:30 -16.84243 -49.29664 13754 ft 400 kts 156°
2026-05-08 21:30 -16.86799 -49.28476 14254 ft 404 kts 155°
2026-05-08 21:30 -16.89380 -49.27275 14777 ft 407 kts 155°
2026-05-08 21:31 -16.91970 -49.26070 15313 ft 409 kts 155°
2026-05-08 21:31 -16.94581 -49.24855 15846 ft 412 kts 155°
2026-05-08 21:31 -16.97208 -49.23632 16363 ft 415 kts 155°
2026-05-08 21:31 -16.99850 -49.22402 16859 ft 418 kts 155°
2026-05-08 21:32 -17.02518 -49.21159 17344 ft 421 kts 155°
2026-05-08 21:32 -17.05207 -49.19906 17806 ft 424 kts 155°
2026-05-08 21:32 -17.07913 -49.18644 18252 ft 427 kts 155°
2026-05-08 21:32 -17.10628 -49.17378 18631 ft 430 kts 155°
2026-05-08 21:33 -17.13369 -49.16100 19013 ft 432 kts 155°
2026-05-08 21:33 -17.15984 -49.14880 19353 ft 435 kts 155°
2026-05-08 21:33 -17.18827 -49.13552 19744 ft 438 kts 155°
2026-05-08 21:33 -17.21589 -49.12262 20112 ft 440 kts 155°
2026-05-08 21:34 -17.24375 -49.10961 20461 ft 443 kts 155°
2026-05-08 21:34 -17.27218 -49.09633 20815 ft 446 kts 156°
2026-05-08 21:34 -17.30090 -49.08371 21166 ft 448 kts 161°
2026-05-08 21:34 -17.33111 -49.07533 21521 ft 450 kts 168°
2026-05-08 21:35 -17.36181 -49.06859 21868 ft 452 kts 169°
2026-05-08 21:35 -17.39282 -49.06205 22174 ft 456 kts 169°
2026-05-08 21:35 -17.42395 -49.05550 22484 ft 458 kts 169°
2026-05-08 21:35 -17.45530 -49.04881 22806 ft 460 kts 169°
2026-05-08 21:36 -17.48673 -49.04199 23126 ft 463 kts 169°
2026-05-08 21:36 -17.51825 -49.03505 23431 ft 465 kts 168°
2026-05-08 21:36 -17.54991 -49.02802 23708 ft 467 kts 168°
2026-05-08 21:36 -17.58181 -49.02089 23969 ft 468 kts 169°
2026-05-08 21:37 -17.61372 -49.01374 24234 ft 470 kts 169°
2026-05-08 21:37 -17.64579 -49.00655 24474 ft 472 kts 169°
2026-05-08 21:37 -17.67799 -48.99933 24731 ft 474 kts 169°
2026-05-08 21:37 -17.71027 -48.99209 24995 ft 475 kts 169°
2026-05-08 21:38 -17.74256 -48.98485 25259 ft 476 kts 169°
2026-05-08 21:38 -17.77509 -48.97756 25512 ft 478 kts 169°
2026-05-08 21:38 -17.80761 -48.97027 25763 ft 479 kts 169°
2026-05-08 21:38 -17.84026 -48.96294 26003 ft 481 kts 169°
2026-05-08 21:39 -17.87303 -48.95559 26229 ft 483 kts 169°
2026-05-08 21:39 -17.90595 -48.94820 26447 ft 485 kts 169°
2026-05-08 21:39 -17.93898 -48.94079 26678 ft 486 kts 169°
2026-05-08 21:39 -17.97212 -48.93334 26924 ft 487 kts 170°
2026-05-08 21:40 -18.00525 -48.92589 27166 ft 488 kts 170°
2026-05-08 21:40 -18.03853 -48.91841 27381 ft 490 kts 170°
2026-05-08 21:40 -18.07198 -48.91089 27605 ft 491 kts 170°
2026-05-08 21:41 -18.13904 -48.89580 27975 ft 496 kts 170°
2026-05-08 21:41 -18.17285 -48.88819 28175 ft 497 kts 170°
2026-05-08 21:41 -18.20664 -48.88057 28470 ft 496 kts 170°
2026-05-08 21:41 -18.24030 -48.87298 28825 ft 494 kts 170°
2026-05-08 21:42 -18.27377 -48.86542 29185 ft 492 kts 170°
2026-05-08 21:42 -18.30725 -48.85786 29526 ft 491 kts 171°
2026-05-08 21:42 -18.34067 -48.85032 29868 ft 491 kts 171°
2026-05-08 21:42 -18.37408 -48.84278 30127 ft 491 kts 171°
2026-05-08 21:43 -18.40706 -48.83534 30380 ft 491 kts 171°
2026-05-08 21:43 -18.44090 -48.82770 30707 ft 490 kts 171°
2026-05-08 21:43 -18.47412 -48.82019 31055 ft 488 kts 171°
2026-05-08 21:43 -18.50729 -48.81268 31368 ft 487 kts 171°
2026-05-08 21:44 -18.54045 -48.80518 31679 ft 486 kts 171°
2026-05-08 21:44 -18.57348 -48.79771 31992 ft 486 kts 171°
2026-05-08 21:44 -18.60651 -48.79023 32303 ft 486 kts 172°
2026-05-08 21:44 -18.63959 -48.78274 32595 ft 485 kts 172°
2026-05-08 21:45 -18.67255 -48.77528 32940 ft 484 kts 172°
2026-05-08 21:45 -18.70503 -48.76791 33309 ft 482 kts 172°
2026-05-08 21:45 -18.73770 -48.76050 33667 ft 481 kts 172°
2026-05-08 21:45 -18.77043 -48.75308 33985 ft 480 kts 172°
2026-05-08 21:46 -18.80303 -48.74568 34270 ft 479 kts 172°
2026-05-08 21:46 -18.83554 -48.73830 34578 ft 478 kts 172°
2026-05-08 21:46 -18.86809 -48.73091 34842 ft 477 kts 172°
2026-05-08 21:46 -18.90055 -48.72354 35120 ft 477 kts 172°
2026-05-08 21:47 -18.93286 -48.71619 35424 ft 475 kts 172°
2026-05-08 21:47 -18.96515 -48.70885 35724 ft 474 kts 173°
2026-05-08 21:47 -18.99738 -48.70152 35982 ft 473 kts 173°
2026-05-08 21:47 -19.02963 -48.69419 35970 ft 477 kts 173°
2026-05-08 21:48 -19.09438 -48.67946 35981 ft 474 kts 173°
2026-05-08 21:48 -19.15863 -48.66480 35979 ft 471 kts 173°
2026-05-08 21:49 -19.22248 -48.65024 35978 ft 469 kts 173°
2026-05-08 21:49 -19.28617 -48.63571 35983 ft 467 kts 173°
2026-05-08 21:50 -19.34929 -48.62130 35989 ft 467 kts 173°
2026-05-08 21:50 -19.41337 -48.60667 35980 ft 468 kts 173°
2026-05-08 21:51 -19.47673 -48.59218 35982 ft 470 kts 173°
2026-05-08 21:51 -19.54061 -48.57755 35976 ft 470 kts 173°
2026-05-08 21:52 -19.60472 -48.56287 35982 ft 472 kts 173°
2026-05-08 21:52 -19.66899 -48.54813 35979 ft 473 kts 173°
2026-05-08 21:53 -19.73339 -48.53335 35974 ft 474 kts 173°
2026-05-08 21:53 -19.79781 -48.51855 35980 ft 474 kts 173°
2026-05-08 21:54 -19.86237 -48.50370 35967 ft 474 kts 173°
2026-05-08 21:54 -19.92678 -48.48888 35956 ft 474 kts 173°
2026-05-08 21:55 -19.99118 -48.47405 35963 ft 473 kts 173°
2026-05-08 21:56 -20.08767 -48.45181 35959 ft 473 kts 173°
2026-05-08 21:56 -20.15198 -48.43697 35958 ft 472 kts 173°
2026-05-08 21:57 -20.21620 -48.42214 35953 ft 472 kts 173°
2026-05-08 21:57 -20.28033 -48.40732 35965 ft 472 kts 173°
2026-05-08 21:58 -20.34452 -48.39247 35958 ft 472 kts 173°
2026-05-08 21:58 -20.40875 -48.37760 35959 ft 472 kts 173°
2026-05-08 21:59 -20.47296 -48.36272 35961 ft 472 kts 173°
2026-05-08 21:59 -20.53723 -48.34782 35962 ft 473 kts 173°
2026-05-08 22:00 -20.60112 -48.33299 35964 ft 473 kts 173°
2026-05-08 22:00 -20.66555 -48.31802 35966 ft 474 kts 173°
2026-05-08 22:01 -20.72997 -48.30304 35970 ft 474 kts 173°
2026-05-08 22:01 -20.79453 -48.28802 35962 ft 475 kts 173°
2026-05-08 22:02 -20.85910 -48.27298 35962 ft 475 kts 173°
2026-05-08 22:02 -20.92377 -48.25790 35963 ft 476 kts 173°
2026-05-08 22:03 -20.98851 -48.24279 35963 ft 476 kts 174°
2026-05-08 22:03 -21.05325 -48.22767 35970 ft 477 kts 173°
2026-05-08 22:04 -21.11810 -48.21251 35973 ft 477 kts 174°
2026-05-08 22:04 -21.17201 -48.19990 35966 ft 477 kts 173°
2026-05-08 22:05 -21.23689 -48.18471 35955 ft 478 kts 174°
2026-05-08 22:05 -21.30189 -48.16948 35970 ft 478 kts 174°
2026-05-08 22:06 -21.36691 -48.15423 35963 ft 478 kts 174°
2026-05-08 22:06 -21.43187 -48.13897 35967 ft 479 kts 174°
2026-05-08 22:07 -21.49706 -48.12366 35970 ft 479 kts 174°
2026-05-08 22:07 -21.56224 -48.10833 35973 ft 480 kts 174°
2026-05-08 22:08 -21.62761 -48.09294 35970 ft 481 kts 174°
2026-05-08 22:08 -21.69302 -48.07753 35971 ft 482 kts 174°
2026-05-08 22:09 -21.75864 -48.06205 35966 ft 483 kts 174°
2026-05-08 22:09 -21.82426 -48.04656 35966 ft 483 kts 174°
2026-05-08 22:10 -21.88954 -48.03112 35973 ft 483 kts 174°
2026-05-08 22:10 -21.95520 -48.01560 35969 ft 483 kts 174°
2026-05-08 22:11 -22.02089 -48.00004 35975 ft 483 kts 174°
2026-05-08 22:11 -22.08644 -47.98450 35977 ft 482 kts 174°
2026-05-08 22:12 -22.15190 -47.96897 35985 ft 482 kts 174°
2026-05-08 22:12 -22.21750 -47.95340 35978 ft 482 kts 174°
2026-05-08 22:13 -22.28300 -47.93783 35967 ft 482 kts 174°
2026-05-08 22:13 -22.34857 -47.92222 35975 ft 482 kts 174°
2026-05-08 22:14 -22.41409 -47.90663 35883 ft 484 kts 174°
2026-05-08 22:14 -22.44688 -47.89769 35760 ft 488 kts 167°
2026-05-08 22:14 -22.47843 -47.88373 35762 ft 496 kts 159°
2026-05-08 22:15 -22.53637 -47.84136 35782 ft 508 kts 146°
2026-05-08 22:15 -22.56372 -47.81738 35615 ft 505 kts 144°
2026-05-08 22:15 -22.59076 -47.79334 35175 ft 500 kts 145°
2026-05-08 22:15 -22.61762 -47.76952 34520 ft 500 kts 145°
2026-05-08 22:16 -22.64467 -47.74576 33826 ft 501 kts 145°
2026-05-08 22:16 -22.67196 -47.72202 33010 ft 504 kts 145°
2026-05-08 22:16 -22.69902 -47.69861 32251 ft 505 kts 145°
2026-05-08 22:16 -22.72695 -47.67453 31454 ft 507 kts 144°
2026-05-08 22:17 -22.75462 -47.65069 30623 ft 511 kts 144°
2026-05-08 22:17 -22.78254 -47.62662 29706 ft 515 kts 144°
2026-05-08 22:17 -22.81067 -47.60234 28692 ft 518 kts 144°
2026-05-08 22:17 -22.83881 -47.57802 27692 ft 519 kts 143°
2026-05-08 22:18 -22.86709 -47.55354 26657 ft 520 kts 143°
2026-05-08 22:18 -22.89533 -47.52908 25901 ft 517 kts 143°
2026-05-08 22:18 -22.92327 -47.50486 25154 ft 513 kts 143°
2026-05-08 22:18 -22.95099 -47.48083 24417 ft 509 kts 143°
2026-05-08 22:19 -22.97856 -47.45692 23685 ft 505 kts 143°
2026-05-08 22:19 -23.00560 -47.43346 22856 ft 502 kts 143°
2026-05-08 22:19 -23.03305 -47.40964 22088 ft 496 kts 143°
2026-05-08 22:19 -23.05992 -47.38631 21360 ft 490 kts 142°
2026-05-08 22:20 -23.08634 -47.36336 20638 ft 484 kts 142°
2026-05-08 22:20 -23.11247 -47.34064 19933 ft 479 kts 142°
2026-05-08 22:20 -23.13799 -47.31846 19215 ft 474 kts 141°
2026-05-08 22:20 -23.16400 -47.29583 18487 ft 470 kts 141°
2026-05-08 22:21 -23.18901 -47.27405 17715 ft 466 kts 141°
2026-05-08 22:21 -23.21452 -47.25183 16951 ft 460 kts 141°
2026-05-08 22:21 -23.23927 -47.23026 16249 ft 454 kts 141°
2026-05-08 22:21 -23.26345 -47.20917 15564 ft 449 kts 141°
2026-05-08 22:22 -23.28765 -47.18806 14843 ft 444 kts 141°
2026-05-08 22:22 -23.31146 -47.16727 14166 ft 440 kts 141°
2026-05-08 22:22 -23.33518 -47.14656 13685 ft 431 kts 141°
2026-05-08 22:22 -23.35841 -47.12626 13014 ft 426 kts 141°
2026-05-08 22:23 -23.38147 -47.10611 12204 ft 425 kts 141°
2026-05-08 22:23 -23.40451 -47.08596 11471 ft 423 kts 141°
2026-05-08 22:23 -23.42723 -47.06595 10844 ft 418 kts 139°
2026-05-08 22:23 -23.44888 -47.04511 10260 ft 412 kts 136°
2026-05-08 22:24 -23.46971 -47.02387 9645 ft 408 kts 135°
2026-05-08 22:24 -23.49017 -47.00259 8908 ft 406 kts 135°
2026-05-08 22:24 -23.51043 -46.98149 8212 ft 404 kts 135°
2026-05-08 22:24 -23.53075 -46.96043 7579 ft 400 kts 136°
2026-05-08 22:25 -23.55085 -46.93971 6972 ft 396 kts 136°
2026-05-08 22:25 -23.57054 -46.91949 6390 ft 393 kts 136°
2026-05-08 22:25 -23.59052 -46.89901 6139 ft 396 kts 136°
2026-05-08 22:25 -23.61060 -46.87845 6016 ft 395 kts 136°
2026-05-08 22:26 -23.63056 -46.85800 5981 ft 393 kts 136°
2026-05-08 22:26 -23.65047 -46.83761 5985 ft 393 kts 136°
2026-05-08 22:26 -23.67034 -46.81723 5985 ft 392 kts 136°
2026-05-08 22:26 -23.69023 -46.79684 5984 ft 392 kts 136°
2026-05-08 22:27 -23.71009 -46.77646 5985 ft 392 kts 136°
2026-05-08 22:27 -23.72995 -46.75607 5984 ft 392 kts 136°
2026-05-08 22:27 -23.74949 -46.73600 5972 ft 378 kts 136°
2026-05-08 22:27 -23.76811 -46.71687 5964 ft 358 kts 136°
2026-05-08 22:28 -23.78563 -46.69888 5956 ft 335 kts 136°
2026-05-08 22:28 -23.80218 -46.68186 5953 ft 319 kts 136°
2026-05-08 22:28 -23.81794 -46.66565 5952 ft 304 kts 136°
2026-05-08 22:28 -23.83217 -46.64925 5942 ft 294 kts 121°
2026-05-08 22:29 -23.83903 -46.62887 5967 ft 281 kts 92°
2026-05-08 22:29 -23.83767 -46.60823 5957 ft 266 kts 70°
2026-05-08 22:29 -23.83065 -46.59044 5962 ft 244 kts 50°
2026-05-08 22:29 -23.82095 -46.57642 5969 ft 223 kts 45°
2026-05-08 22:30 -23.81159 -46.56353 5928 ft 208 kts 44°
2026-05-08 22:30 -23.80199 -46.55222 5903 ft 198 kts 25°
2026-05-08 22:30 -23.78951 -46.54863 5924 ft 183 kts 352°
2026-05-08 22:30 -23.77754 -46.55216 5788 ft 177 kts 328°
2026-05-08 22:31 -23.76733 -46.55923 5608 ft 171 kts 327°
2026-05-08 22:31 -23.75735 -46.56607 5397 ft 168 kts 327°
2026-05-08 22:31 -23.74772 -46.57270 5214 ft 158 kts 327°
2026-05-08 22:31 -23.73886 -46.57881 5070 ft 142 kts 326°
2026-05-08 22:32 -23.73099 -46.58423 4906 ft 130 kts 326°
2026-05-08 22:32 -23.72347 -46.58943 4713 ft 126 kts 326°
2026-05-08 22:32 -23.71616 -46.59449 4549 ft 126 kts 326°
2026-05-08 22:32 -23.70873 -46.59963 4381 ft 127 kts 326°
2026-05-08 22:33 -23.70115 -46.60488 4208 ft 128 kts 327°
2026-05-08 22:33 -23.69374 -46.61001 4037 ft 128 kts 327°
2026-05-08 22:33 -23.68619 -46.61529 3847 ft 129 kts 327°
2026-05-08 22:33 -23.67860 -46.62058 3668 ft 130 kts 327°
2026-05-08 22:34 -23.67084 -46.62596 3552 ft 131 kts 328°
2026-05-08 22:34 -23.66309 -46.63137 3371 ft 136 kts 328°
2026-05-08 22:34 -23.65505 -46.63693 3187 ft 138 kts 329°
2026-05-08 22:34 -23.64678 -46.64250 2923 ft 142 kts 329°
2026-05-08 22:35 -23.63849 -46.64833 2744 ft 142 kts 329°
2026-05-08 22:35 -23.63023 -46.65401 2611 ft 134 kts 328°
2026-05-08 22:35 -23.62507 -46.65757 2603 ft 57 kts 327°
2026-05-08 22:35 -23.62279 -46.65915 2599 ft 30 kts 328°
2026-05-08 22:36 -23.62196 -46.66018 2598 ft 13 kts 243°
2026-05-08 22:36 -23.62275 -46.66026 2599 ft 13 kts 147°
2026-05-08 22:36 -23.62349 -46.65974 2599 ft 12 kts 147°
2026-05-08 22:36 -23.62420 -46.65924 2600 ft 12 kts 147°
2026-05-08 22:37 -23.62490 -46.65876 2601 ft 12 kts 147°
2026-05-08 22:37 -23.62557 -46.65844 2600 ft 10 kts 195°
2026-05-08 22:37 -23.62585 -46.65882 2600 ft 2 kts 237°
2026-05-08 22:37 -23.62592 -46.65892 2600 ft 2 kts 237°
2026-05-08 22:38 -23.62598 -46.65903 2600 ft 1 kts 237°
2026-05-08 22:38 -23.62598 -46.65904 2600 ft 0 kts 237°